Yoho Park AWS, British Columbia

5:45 PM MST on January 18, 2017 (GMT -0700)
Yoho Park AWS

Weather History for 71786 - December, 2012

Change the Weather History Date:

Monday, December 10, 2012

  Actual Average Record
Temperature  
Mean Temperature 14 °F -  
Max Temperature 16 °F - - ()
Min Temperature 11 °F - - ()
Degree Days  
Heating Degree Days 52    
Moisture  
Dew Point 11 °F    
Average Humidity 90    
Maximum Humidity 93    
Minimum Humidity 84    
Precipitation  
Precipitation 0.00 in - - ()
Sea Level Pressure  
Sea Level Pressure 30.09 in    
Wind  
Wind Speed 17 mph ()    
Max Wind Speed 23 mph    
Max Gust Speed -    
T = Trace of Precipitation, MM = Missing Value Source: Averaged Metar Reports

Daily Weather History Graph

Daily Weather History Graph

Search for Another Location

Airport or City:

Trip Planner

Search our weather history database for the weather conditions in past years. The results will help you decide how hot, cold, wet, or windy it might be!

Date:

Astronomy

Dec. 10, 2012 Rise Set
Actual Time 8:40 AM MST 4:36 PM MST
Civil Twilight 8:00 AM MST 5:16 PM MST
Nautical Twilight 7:17 AM MST 5:59 PM MST
Astronomical Twilight 6:36 AM MST 6:39 PM MST
Moon 5:15 AM MST (12/10) 2:40 PM MST (12/10)
Length of Visible Light 9h 16m
Length of Day
7h 56m
Waning Crescent, 10% of the Moon is Illuminated
Dec 10
Waning Crescent
Dec 13
New
Dec 19
First Quarter
Dec 28
Full
Jan 4
Last Quarter

Hourly Weather History & Observations

Time (MST) Temp. Windchill Dew Point Humidity Pressure Visibility Wind Dir Wind Speed Gust Speed Precip Events Conditions
12:00 AM 11.7 °F -7.8 °F 9.3 °F 90% 30.11 in - West 23.0 mph - N/A   Unknown
1:00 AM 12.0 °F -6.9 °F 9.7 °F 90% 30.12 in - WSW 21.9 mph - N/A   Unknown
2:00 AM 12.0 °F -7.3 °F 9.9 °F 91% 30.12 in - West 23.0 mph - N/A   Unknown
3:00 AM 12.0 °F -5.6 °F 9.9 °F 91% 30.13 in - WSW 18.4 mph - N/A   Unknown
4:00 AM 11.8 °F -5.3 °F 9.7 °F 91% 30.13 in - WSW 17.3 mph - N/A   Unknown
5:00 AM 12 °F - 10 °F 85% 30.12 in - WSW 18.4 mph - -  
5:00 AM 11.7 °F -6.0 °F 9.5 °F 91% 30.12 in - WSW 18.4 mph - N/A   Unknown
6:00 AM 11.7 °F -6.5 °F 9.5 °F 91% 30.12 in - WSW 19.6 mph - N/A   Unknown
7:00 AM 11.5 °F -5.8 °F 9.3 °F 91% 30.13 in - WSW 17.3 mph - N/A   Unknown
8:00 AM 11.3 °F -5.5 °F 9.1 °F 91% 30.13 in - WSW 16.1 mph - N/A   Unknown
9:00 AM 11.3 °F -4.9 °F 9.1 °F 91% 30.13 in - WSW 15.0 mph - N/A   Unknown
10:00 AM 11.8 °F -5.8 °F 9.7 °F 91% 30.14 in - WSW 18.4 mph - N/A   Unknown
11:00 AM 13 °F - 10 °F 84% 30.14 in - WSW 17.3 mph - -  
11:00 AM 12.7 °F -4.1 °F 10.4 °F 90% 30.14 in - WSW 17.3 mph - N/A   Unknown
12:00 PM 13.5 °F -3.2 °F 11.1 °F 90% 30.13 in - West 17.3 mph - N/A   Unknown
1:00 PM 15.3 °F 1.4 °F 12.4 °F 88% 30.12 in - WSW 12.7 mph - N/A   Unknown
2:00 PM 15.4 °F 1.6 °F 12.7 °F 89% 30.11 in - WSW 12.7 mph - N/A   Unknown
3:00 PM 15.6 °F 1.8 °F 13.1 °F 90% 30.09 in - WSW 12.7 mph - N/A   Unknown
4:00 PM 15.1 °F -0.1 °F 12.9 °F 91% 30.09 in - WSW 15.0 mph - N/A   Unknown
5:00 PM 15 °F - 13 °F 87% 30.08 in - WSW 17.3 mph - -  
5:00 PM 14.9 °F -1.3 °F 12.9 °F 92% 30.08 in - WSW 17.3 mph - N/A   Unknown
6:00 PM 14.9 °F -1.3 °F 13.1 °F 93% 30.07 in - WSW 17.3 mph - N/A   Unknown
7:00 PM 15.1 °F -2.0 °F 13.1 °F 92% 30.06 in - WSW 19.6 mph - N/A   Unknown
8:00 PM 14.9 °F -2.7 °F 13.1 °F 93% 30.05 in - West 20.7 mph - N/A   Unknown
9:00 PM 15.6 °F -1.8 °F 13.6 °F 92% 30.03 in - WSW 20.7 mph - N/A   Unknown
10:00 PM 15.8 °F -1.5 °F 14.0 °F 93% 29.99 in - WSW 20.7 mph - N/A   Unknown
11:00 PM 16 °F - 14 °F 89% 29.97 in - West 20.7 mph - -  
11:00 PM 16.0 °F -1.3 °F 14.2 °F 93% 29.97 in - West 20.7 mph - N/A   Unknown